| time (UTC) | temp F | wind direction | speed MPH | gust MPH | rain 1hr in | rain 24hr in | rain mn in | humidity % | barometer mb |
| 20260831203045 | 77 | 54 | 1.0 | 4.0 | 0.00 | 0.00 | 0.00 | 84 | 1017.4 |
| 20260831202020 | 77 | 65 | 1.0 | 3.0 | 0.00 | 0.00 | 0.00 | 84 | 1017.2 |
| 20260831201016 | 76 | 69 | 0.0 | 2.0 | 0.00 | 0.00 | 0.00 | 84 | 1017.1 |
| 20260831200032 | 76 | 85 | 1.0 | 3.0 | 0.00 | 0.00 | 0.00 | 84 | 1017.0 |
| 20260831195026 | 76 | 78 | 1.0 | 3.0 | 0.00 | 0.00 | 0.00 | 84 | 1016.8 |
| 20260831194022 | 76 | 55 | 1.0 | 3.0 | 0.00 | 0.00 | 0.00 | 85 | 1016.6 |
| 20260831193017 | 76 | 65 | 1.0 | 3.0 | 0.00 | 0.00 | 0.00 | 84 | 1016.3 |
| 20260831192033 | 77 | 67 | 1.0 | 4.0 | 0.00 | 0.00 | 0.00 | 84 | 1016.3 |
| 20260831191028 | 77 | 66 | 0.0 | 4.0 | 0.00 | 0.00 | 0.00 | 83 | 1016.1 |
| 20260831190023 | 77 | 63 | 1.0 | 4.0 | 0.00 | 0.00 | 0.00 | 81 | 1016.1 |
| 20260831185038 | 77 | 68 | 2.0 | 7.0 | 0.00 | 0.00 | 0.00 | 81 | 1016.0 |
| 20260831184034 | 78 | 88 | 2.0 | 8.0 | 0.00 | 0.00 | 0.00 | 80 | 1015.9 |
| 20260831183029 | 78 | 82 | 2.0 | 6.0 | 0.00 | 0.00 | 0.00 | 79 | 1015.8 |
| 20260831182024 | 78 | 76 | 3.0 | 8.0 | 0.00 | 0.00 | 0.00 | 78 | 1015.9 |
| 20260831181019 | 78 | 92 | 3.0 | 8.0 | 0.00 | 0.00 | 0.00 | 78 | 1015.7 |
| 20260831180035 | 78 | 74 | 2.0 | 7.0 | 0.00 | 0.00 | 0.00 | 78 | 1015.7 |
| 20260831175030 | 79 | 65 | 1.0 | 3.0 | 0.00 | 0.00 | 0.00 | 77 | 1015.6 |
| 20260831174025 | 79 | 71 | 2.0 | 7.0 | 0.00 | 0.00 | 0.00 | 75 | 1015.6 |
| 20260831173021 | 79 | 72 | 3.0 | 8.0 | 0.00 | 0.00 | 0.00 | 76 | 1015.6 |
| 20260831172016 | 79 | 65 | 2.0 | 9.0 | 0.00 | 0.00 | 0.00 | 76 | 1015.7 |
| 20260831171031 | 79 | 67 | 2.0 | 7.0 | 0.00 | 0.00 | 0.00 | 76 | 1015.5 |
| 20260831170027 | 79 | 78 | 4.0 | 8.0 | 0.00 | 0.00 | 0.00 | 77 | 1015.5 |
| 20260831165022 | 79 | 98 | 5.0 | 11.0 | 0.00 | 0.00 | 0.00 | 77 | 1015.5 |
| 20260831164018 | 79 | 112 | 6.0 | 11.0 | 0.00 | 0.00 | 0.00 | 77 | 1015.8 |
| 20260831163033 | 80 | 122 | 6.0 | 11.0 | 0.00 | 0.00 | 0.00 | 77 | 1015.8 |
| 20260831162049 | 79 | 117 | 8.0 | 13.0 | 0.00 | 0.00 | 0.00 | 77 | 1016.0 |
| 20260831161024 | 80 | 118 | 7.0 | 14.0 | 0.00 | 0.00 | 0.00 | 77 | 1015.8 |
| 20260831160020 | 80 | 89 | 4.0 | 13.0 | 0.00 | 0.00 | 0.00 | 77 | 1015.8 |
| 20260831155035 | 80 | 107 | 8.0 | 15.0 | 0.00 | 0.00 | 0.00 | 77 | 1016.0 |
| 20260831154031 | 80 | 109 | 9.0 | 15.0 | 0.00 | 0.00 | 0.00 | 77 | 1016.0 |
| 20260831153025 | 80 | 104 | 7.0 | 13.0 | 0.00 | 0.00 | 0.00 | 75 | 1016.1 |
| 20260831152021 | 80 | 106 | 8.0 | 15.0 | 0.00 | 0.00 | 0.00 | 76 | 1016.2 |
| 20260831151016 | 80 | 89 | 7.0 | 15.0 | 0.00 | 0.00 | 0.00 | 77 | 1016.2 |
| 20260831150031 | 81 | 110 | 11.0 | 18.0 | 0.00 | 0.00 | 0.00 | 76 | 1016.0 |
| 20260831145047 | 80 | 98 | 12.0 | 19.0 | 0.00 | 0.00 | 0.00 | 77 | 1016.2 |
| 20260831144022 | 80 | 95 | 9.0 | 19.0 | 0.00 | 0.00 | 0.00 | 78 | 1016.2 |
| 20260831143017 | 81 | 90 | 7.0 | 18.0 | 0.00 | 0.00 | 0.00 | 76 | 1016.3 |
| 20260831142032 | 81 | 84 | 9.0 | 19.0 | 0.00 | 0.00 | 0.00 | 76 | 1016.2 |
| 20260831141028 | 81 | 86 | 12.0 | 19.0 | 0.00 | 0.00 | 0.00 | 75 | 1016.1 |
| 20260831140023 | 81 | 89 | 7.0 | 17.0 | 0.00 | 0.00 | 0.00 | 74 | 1016.3 |
| 20260831135018 | 82 | 80 | 8.0 | 22.0 | 0.00 | 0.00 | 0.00 | 73 | 1016.3 |
| 20260831134034 | 82 | 69 | 7.0 | 16.0 | 0.00 | 0.00 | 0.00 | 74 | 1016.4 |
| 20260831133050 | 82 | 73 | 8.0 | 18.0 | 0.00 | 0.00 | 0.00 | 71 | 1016.2 |
| 20260831132025 | 82 | 75 | 7.0 | 17.0 | 0.00 | 0.00 | 0.00 | 72 | 1016.3 |
| 20260831131020 | 83 | 66 | 8.0 | 22.0 | 0.00 | 0.00 | 0.00 | 70 | 1016.3 |
| 20260831130035 | 83 | 67 | 8.0 | 21.0 | 0.00 | 0.00 | 0.00 | 70 | 1016.2 |
| 20260831125031 | 82 | 74 | 8.0 | 19.0 | 0.00 | 0.00 | 0.00 | 70 | 1016.5 |
| 20260831124026 | 83 | 64 | 8.0 | 21.0 | 0.00 | 0.00 | 0.00 | 67 | 1016.6 |
| 20260831123023 | 83 | 71 | 7.0 | 19.0 | 0.00 | 0.00 | 0.00 | 67 | 1016.6 |
| 20260831122037 | 83 | 88 | 7.0 | 19.0 | 0.00 | 0.00 | 0.00 | 66 | 1016.6 |
| 20260831121032 | 84 | 73 | 5.0 | 13.0 | 0.00 | 0.00 | 0.00 | 69 | 1016.7 |
| 20260831120028 | 83 | 70 | 6.0 | 14.0 | 0.00 | 0.00 | 0.00 | 69 | 1016.8 |
| 20260831115043 | 83 | 83 | 7.0 | 15.0 | 0.00 | 0.00 | 0.00 | 70 | 1016.9 |
| 20260831114018 | 83 | 87 | 8.0 | 19.0 | 0.00 | 0.00 | 0.00 | 69 | 1017.0 |
| 20260831113034 | 83 | 94 | 9.0 | 18.0 | 0.00 | 0.00 | 0.00 | 67 | 1016.8 |
| 20260831112029 | 82 | 81 | 7.0 | 19.0 | 0.00 | 0.00 | 0.00 | 70 | 1017.0 |
| 20260831111024 | 82 | 83 | 7.0 | 17.0 | 0.00 | 0.00 | 0.00 | 73 | 1017.0 |
| 20260831110040 | 82 | 87 | 11.0 | 22.0 | 0.00 | 0.00 | 0.00 | 74 | 1017.1 |
| 20260831105035 | 82 | 94 | 8.0 | 18.0 | 0.00 | 0.00 | 0.00 | 72 | 1017.1 |
| 20260831104050 | 82 | 79 | 7.0 | 15.0 | 0.00 | 0.00 | 0.00 | 72 | 1017.2 |
| 20260831103045 | 82 | 85 | 10.0 | 17.0 | 0.00 | 0.00 | 0.00 | 72 | 1017.2 |
| 20260831102020 | 83 | 88 | 9.0 | 18.0 | 0.00 | 0.00 | 0.00 | 71 | 1017.1 |
| 20260831101016 | 83 | 82 | 7.0 | 19.0 | 0.00 | 0.00 | 0.00 | 68 | 1017.0 |
| 20260831100031 | 83 | 112 | 7.0 | 14.0 | 0.00 | 0.00 | 0.00 | 68 | 1016.9 |
| 20260831095026 | 82 | 101 | 7.0 | 16.0 | 0.00 | 0.00 | 0.00 | 70 | 1016.9 |
| 20260831094021 | 82 | 85 | 6.0 | 15.0 | 0.00 | 0.00 | 0.00 | 69 | 1017.0 |
| 20260831093017 | 82 | 80 | 5.0 | 13.0 | 0.00 | 0.00 | 0.00 | 70 | 1016.9 |
| 20260831092033 | 81 | 71 | 4.0 | 9.0 | 0.00 | 0.00 | 0.00 | 70 | 1016.8 |
| 20260831091028 | 81 | 73 | 5.0 | 14.0 | 0.00 | 0.00 | 0.00 | 69 | 1016.6 |
| 20260831090023 | 81 | 59 | 5.0 | 9.0 | 0.00 | 0.00 | 0.00 | 70 | 1016.5 |
| 20260831085018 | 80 | 60 | 4.0 | 9.0 | 0.00 | 0.00 | 0.00 | 71 | 1016.5 |
| 20260831084034 | 81 | 64 | 1.0 | 6.0 | 0.00 | 0.00 | 0.00 | 68 | 1016.5 |
| 20260831083029 | 79 | 80 | 2.0 | 7.0 | 0.00 | 0.00 | 0.00 | 71 | 1016.5 |
| 20260831082024 | 81 | 98 | 2.0 | 4.0 | 0.00 | 0.00 | 0.00 | 69 | 1016.4 |
| 20260831081019 | 80 | 87 | 1.0 | 4.0 | 0.00 | 0.00 | 0.00 | 71 | 1016.4 |
| 20260831080034 | 79 | 45 | 1.0 | 4.0 | 0.00 | 0.00 | 0.00 | 71 | 1016.2 |
| 20260831075030 | 79 | 10 | 0.0 | 1.0 | 0.00 | 0.00 | 0.00 | 71 | 1016.2 |
| 20260831074026 | 79 | 234 | 0.0 | 2.0 | 0.00 | 0.00 | 0.00 | 70 | 1016.3 |
| 20260831073021 | 78 | 264 | 1.0 | 2.0 | 0.00 | 0.00 | 0.00 | 70 | 1016.2 |
| 20260831072015 | 77 | 281 | 1.0 | 3.0 | 0.00 | 0.00 | 0.00 | 72 | 1016.1 |
| 20260831071031 | 76 | 279 | 1.0 | 2.0 | 0.00 | 0.00 | 0.00 | 72 | 1015.9 |
| 20260831070026 | 76 | 262 | 1.0 | 2.0 | 0.00 | 0.00 | 0.00 | 69 | 1015.8 |
| 20260831065021 | 75 | 339 | 0.0 | 1.0 | 0.00 | 0.00 | 0.00 | 69 | 1015.7 |
| 20260831064016 | 74 | 313 | 0.0 | 1.0 | 0.00 | 0.00 | 0.00 | 69 | 1015.7 |
| 20260831063032 | 74 | 320 | 1.0 | 2.0 | 0.00 | 0.00 | 0.00 | 68 | 1015.6 |
| 20260831062027 | 72 | 324 | 1.0 | 2.0 | 0.00 | 0.00 | 0.00 | 67 | 1015.4 |
| 20260831061043 | 72 | 0.0 | 0.0 | 0.00 | 0.00 | 0.00 | 71 | 1015.4 | |
| 20260831060018 | 71 | 0.0 | 0.0 | 0.00 | 0.00 | 0.00 | 72 | 1015.2 | |
| 20260831055033 | 71 | 0.0 | 0.0 | 0.00 | 0.00 | 0.00 | 73 | 1015.0 | |
| 20260831054029 | 72 | 0.0 | 0.0 | 0.00 | 0.00 | 0.00 | 71 | 1015.0 | |
| 20260831053024 | 72 | 0.0 | 0.0 | 0.00 | 0.00 | 0.00 | 71 | 1015.1 | |
| 20260831052020 | 72 | 313 | 0.0 | 1.0 | 0.00 | 0.00 | 0.00 | 69 | 1014.8 |
| 20260831051035 | 72 | 291 | 2.0 | 3.0 | 0.00 | 0.00 | 0.00 | 69 | 1014.6 |
| 20260831050050 | 71 | 311 | 1.0 | 2.0 | 0.00 | 0.00 | 0.00 | 71 | 1014.7 |
| 20260831045025 | 71 | 0.0 | 0.0 | 0.00 | 0.00 | 0.00 | 74 | 1014.7 | |
| 20260831044020 | 71 | 318 | 0.0 | 2.0 | 0.00 | 0.00 | 0.00 | 74 | 1014.7 |
| 20260831043015 | 71 | 322 | 2.0 | 3.0 | 0.00 | 0.00 | 0.00 | 75 | 1014.6 |
| 20260831042031 | 70 | 337 | 1.0 | 2.0 | 0.00 | 0.00 | 0.00 | 77 | 1014.5 |
| 20260831041026 | 71 | 338 | 1.0 | 3.0 | 0.00 | 0.00 | 0.00 | 79 | 1014.5 |
| 20260831040021 | 71 | 322 | 1.0 | 3.0 | 0.00 | 0.00 | 0.00 | 80 | 1014.5 |
| 20260831035036 | 71 | 332 | 1.0 | 2.0 | 0.00 | 0.00 | 0.00 | 81 | 1014.6 |
| 20260831034032 | 72 | 0.0 | 0.0 | 0.00 | 0.00 | 0.00 | 80 | 1014.5 | |
| 20260831033027 | 72 | 0.0 | 0.0 | 0.00 | 0.00 | 0.00 | 79 | 1014.6 | |
| 20260831032022 | 72 | 306 | 0.0 | 1.0 | 0.00 | 0.00 | 0.00 | 79 | 1014.5 |
| 20260831031018 | 72 | 289 | 2.0 | 4.0 | 0.00 | 0.00 | 0.00 | 79 | 1014.5 |
| 20260831030053 | 73 | 281 | 1.0 | 3.0 | 0.00 | 0.00 | 0.00 | 80 | 1014.6 |
| 20260831025029 | 73 | 273 | 2.0 | 4.0 | 0.00 | 0.00 | 0.00 | 80 | 1014.5 |
| 20260831024024 | 73 | 281 | 2.0 | 4.0 | 0.00 | 0.00 | 0.00 | 79 | 1014.5 |
| 20260831023019 | 73 | 296 | 2.0 | 4.0 | 0.00 | 0.00 | 0.00 | 79 | 1014.6 |
| 20260831022035 | 73 | 310 | 3.0 | 7.0 | 0.00 | 0.00 | 0.00 | 80 | 1014.5 |
| 20260831021030 | 73 | 297 | 3.0 | 6.0 | 0.00 | 0.00 | 0.00 | 81 | 1014.5 |
| 20260831020026 | 73 | 304 | 2.0 | 4.0 | 0.00 | 0.00 | 0.00 | 82 | 1014.5 |
| 20260831015021 | 73 | 325 | 1.0 | 3.0 | 0.00 | 0.00 | 0.00 | 82 | 1014.5 |
| 20260831014015 | 73 | 333 | 2.0 | 6.0 | 0.00 | 0.00 | 0.00 | 82 | 1014.3 |
| 20260831013112 | 73 | 339 | 1.0 | 2.0 | 0.00 | 0.00 | 0.00 | 82 | 1014.4 |
| 20260831012047 | 73 | 338 | 1.0 | 2.0 | 0.00 | 0.00 | 0.00 | 82 | 1014.5 |
| 20260831011042 | 73 | 351 | 1.0 | 2.0 | 0.00 | 0.00 | 0.00 | 81 | 1014.6 |
| 20260831010016 | 74 | 344 | 0.0 | 2.0 | 0.00 | 0.00 | 0.00 | 80 | 1014.7 |
| 20260831005032 | 74 | 343 | 1.0 | 2.0 | 0.00 | 0.00 | 0.00 | 79 | 1014.8 |
| 20260831004027 | 74 | 331 | 2.0 | 3.0 | 0.00 | 0.00 | 0.00 | 78 | 1014.9 |
| 20260831003023 | 74 | 306 | 3.0 | 4.0 | 0.00 | 0.00 | 0.00 | 78 | 1014.7 |
| 20260831002018 | 74 | 337 | 2.0 | 3.0 | 0.00 | 0.00 | 0.00 | 78 | 1014.8 |
| 20260831001033 | 75 | 342 | 3.0 | 4.0 | 0.00 | 0.00 | 0.00 | 78 | 1014.9 |
| 20260831000049 | 75 | 354 | 2.0 | 4.0 | 0.00 | 0.00 | 0.00 | 79 | 1014.8 |
| 20260830235024 | 75 | 351 | 3.0 | 6.0 | 0.00 | 0.00 | 0.00 | 79 | 1014.8 |
| 20260830234019 | 75 | 347 | 3.0 | 6.0 | 0.00 | 0.00 | 0.00 | 79 | 1014.8 |
| 20260830233035 | 75 | 355 | 3.0 | 4.0 | 0.00 | 0.00 | 0.00 | 80 | 1014.9 |
| 20260830232031 | 75 | 12 | 3.0 | 6.0 | 0.00 | 0.00 | 0.00 | 80 | 1014.9 |
| 20260830231046 | 75 | 19 | 4.0 | 7.0 | 0.00 | 0.00 | 0.00 | 81 | 1014.9 |
| 20260830230021 | 75 | 24 | 3.0 | 6.0 | 0.00 | 0.00 | 0.00 | 82 | 1014.9 |
| 20260830225016 | 76 | 28 | 2.0 | 6.0 | 0.00 | 0.00 | 0.00 | 83 | 1014.8 |
| 20260830224032 | 76 | 46 | 3.0 | 8.0 | 0.00 | 0.00 | 0.00 | 83 | 1014.8 |
| 20260830223027 | 76 | 45 | 2.0 | 6.0 | 0.00 | 0.00 | 0.00 | 84 | 1014.8 |
| 20260830222022 | 76 | 52 | 3.0 | 7.0 | 0.00 | 0.00 | 0.00 | 84 | 1014.7 |
| 20260830221017 | 76 | 49 | 3.0 | 9.0 | 0.00 | 0.00 | 0.00 | 84 | 1014.8 |
| 20260830220032 | 76 | 39 | 2.0 | 7.0 | 0.00 | 0.00 | 0.00 | 83 | 1014.8 |
| 20260830215028 | 76 | 52 | 3.0 | 7.0 | 0.00 | 0.00 | 0.00 | 83 | 1014.8 |
| 20260830214023 | 76 | 51 | 3.0 | 7.0 | 0.00 | 0.00 | 0.00 | 83 | 1014.7 |
| 20260830213038 | 76 | 56 | 3.0 | 8.0 | 0.00 | 0.00 | 0.00 | 83 | 1014.5 |
| 20260830212033 | 77 | 59 | 3.0 | 7.0 | 0.00 | 0.00 | 0.00 | 82 | 1014.5 |
| 20260830211028 | 77 | 52 | 4.0 | 11.0 | 0.00 | 0.00 | 0.00 | 82 | 1014.5 |
| 20260830210104 | 77 | 47 | 4.0 | 10.0 | 0.00 | 0.00 | 0.00 | 82 | 1014.4 |
| 20260830205019 | 77 | 44 | 4.0 | 10.0 | 0.00 | 0.00 | 0.00 | 82 | 1014.3 |
| 20260830204034 | 77 | 53 | 4.0 | 11.0 | 0.00 | 0.00 | 0.00 | 81 | 1014.3 |